Overview Statistics Trail Chart Weather Telemetry Raw packets
 

This is the latest recevied weather packets stored in our database for station/object KB9HUO. If no packets are shown the sender has not sent any weather packets the latest 10 day(s).

<< 85 86 87 88 89 90 91 >>
Time Temp. Humidity Pressure Rain* Wind** Luminosity Snow
1788034432 28.89° C 56% 1021 hPa 0 mm - 107 W/m² -
1788034129 28.89° C 54% 1021 hPa 0 mm - 106 W/m² -
1788033827 28.89° C 56% 1021.3 hPa 0 mm - 109 W/m² -
1788033521 29.44° C 54% 1021.2 hPa 0 mm - 117 W/m² -
1788033216 29.44° C 52% 1021.2 hPa 0 mm - 109 W/m² -
1788032912 29.44° C 53% 1021 hPa 0 mm - 133 W/m² -
1788032611 30° C 51% 1021.3 hPa 0 mm - 117 W/m² -
1788032307 30° C 49% 1021.1 hPa 0 mm - 114 W/m² -
1788032002 30° C 50% 1021.3 hPa 0 mm - 111 W/m² -
1788031698 30° C 48% 1021.3 hPa 0 mm - 148 W/m² -
1788031397 30° C 49% 1021.4 hPa 0 mm - 144 W/m² -
1788031093 30° C 49% 1021.4 hPa 0 mm - 218 W/m² -
1788030792 30° C 49% 1021.4 hPa 0 mm - 173 W/m² -
1788030491 30° C 52% 1021.5 hPa 0 mm - 359 W/m² -
1788030186 29.44° C 55% 1021.6 hPa 0 mm - 128 W/m² -
1788029880 29.44° C 53% 1021.7 hPa 0 mm - 496 W/m² -
1788029576 29.44° C 54% 1021.7 hPa 0 mm - 584 W/m² -
1788029275 30° C 51% 1021.7 hPa 0 mm - 209 W/m² -
1788028970 30° C 51% 1021.9 hPa 0 mm - 575 W/m² -
1788028670 30° C 50% 1021.8 hPa 0 mm - 709 W/m² -
1788028370 30.56° C 49% 1021.8 hPa 0 mm - 206 W/m² -
1788028066 30° C 51% 1022 hPa 0 mm - 747 W/m² -
1788027766 30.56° C 53% 1022 hPa 0 mm - 754 W/m² -
1788027465 30.56° C 50% 1022 hPa 0 mm - 130 W/m² -
1788027160 30.56° C 50% 1022.2 hPa 0 mm - 768 W/m² -

* Rain latest hour (hover to see other rain measurements)
** Current wind speed in m/s (hover to see current wind gust speed)